Location: Lugano
(46.0000°N, 8.9670°E)
Time: 18:09:45
(UTC+02:00)

ARIANE 6 FM1 Upper Stage - Visible Passes

Search period start: 13 May 2025 00:00
Search period end: 23 May 2025 00:00
Orbit: 534 x 608 km, 62.0° (Epoch: 13 May)

Date Brightness Start Highest point End Pass type
(mag) Time Alt. Az. Time Alt. Az. Time Alt. Az.
13 May 4.6 01:26:42 19° WNW 01:28:25 25° NW 01:31:51 10° NNE visible
13 May 2.6 23:51:19 67° ENE 23:51:19 67° ENE 23:54:56 10° NE visible
14 May 5.1 01:27:28 10° W 01:30:29 20° NNW 01:33:31 10° NNE visible
14 May 5.9 04:50:54 10° N 04:52:11 11° NNE 04:53:29 10° NE visible
14 May 4.7 22:15:36 12° E 22:15:36 12° E 22:16:15 10° E visible
14 May 2.7 23:51:36 44° WSW 23:52:45 71° NW 23:56:48 10° NE visible
15 May 5.5 01:30:02 10° WNW 01:32:35 16° NNW 01:35:09 10° NNE visible
15 May 5.8 04:52:21 10° N 04:54:22 13° NNE 04:56:23 10° NE visible
15 May 3.8 22:15:09 20° SE 22:15:48 21° ESE 22:18:52 10° ENE visible
15 May 3.5 23:51:04 12° WSW 23:54:39 48° NW 23:58:36 10° NNE visible
16 May 5.7 01:32:44 10° NW 01:34:44 13° NNW 01:36:43 10° N visible
16 May 5.7 04:53:55 10° NNW 04:56:30 16° NNE 04:59:07 10° ENE visible
16 May 3.3 22:13:57 10° S 22:17:31 31° ESE 22:21:07 10° ENE visible
16 May 4.2 23:52:54 10° WSW 23:56:37 34° NW 00:00:21 10° NNE visible
17 May 5.9 01:35:38 10° NW 01:36:54 11° NNW 01:38:09 10° N visible
17 May 5.6 04:55:32 10° NNW 04:58:36 20° NNE 05:01:42 10° ENE visible
17 May 2.7 22:15:25 10° SSW 22:19:17 48° SE 22:23:10 10° NE visible
17 May 4.8 23:55:11 10° W 23:58:36 26° NW 00:02:03 10° NNE visible
18 May 5.3 04:57:11 10° NNW 05:00:39 25° NE 05:04:09 10° E visible
18 May 2.4 22:17:05 10° SSW 22:21:04 74° SE 22:25:06 10° NE visible
18 May 5.3 23:57:36 10° W 00:00:38 20° NNW 00:03:42 10° NNE visible
19 May 6.2 03:21:09 10° N 03:22:19 11° NNE 03:23:30 10° NNE visible
19 May 4.8 04:58:53 10° NNW 05:02:39 33° NE 05:06:28 10° ESE visible
19 May 2.8 22:18:54 10° SW 22:22:54 74° NW 22:26:57 10° NE visible
20 May 5.7 00:00:07 10° WNW 00:02:43 16° NNW 00:05:20 10° NNE visible
20 May 6.0 03:22:32 10° N 03:24:28 13° NNE 03:26:26 10° NE visible
20 May 4.0 05:00:36 10° NNW 05:04:36 45° NE 05:08:39 10° ESE visible
20 May 3.6 22:20:53 10° WSW 22:24:47 50° NW 22:28:44 10° NNE visible
21 May 6.0 00:02:47 10° NW 00:04:49 13° NNW 00:06:52 10° N visible
21 May 5.9 03:24:05 10° NNW 03:26:37 16° NNE 03:29:09 10° ENE visible
21 May 3.2 05:02:21 10° NW 05:06:29 64° NE 05:10:42 10° SE visible
21 May 4.4 22:22:59 10° WSW 22:26:43 36° NW 22:30:28 10° NNE visible
22 May 6.3 00:05:38 10° NW 00:06:59 11° NNW 00:08:19 10° N visible
22 May 5.6 03:25:40 10° NNW 03:28:41 19° NNE 03:31:43 10° ENE visible
22 May 2.7 05:04:11 10° NW 05:08:21 87° SW 05:12:35 10° SE visible
22 May 5.0 22:25:14 10° W 22:28:41 27° NW 22:32:10 10° NNE visible
